Albion, NE

6:05 PM CDT on October 17, 2017 (GMT -0500)
Albion Municipal

Weather History for KBVN - April, 2014

Change the Weather History Date:

Thursday, April 10, 2014

  Actual Average (KOFK) Record (KOFK)
Temperature  
Mean Temperature 54 °F -  
Max Temperature 65 °F 60 °F 88 °F (1977)
Min Temperature 44 °F 35 °F 17 °F (1921)
Degree Days  
Heating Degree Days 10    
Growing Degree Days 4 (Base 50)    
Moisture  
Dew Point 28 °F    
Average Humidity 40    
Maximum Humidity 67    
Minimum Humidity 17    
Precipitation  
Precipitation 0.00 in - - ()
Sea Level Pressure  
Sea Level Pressure 29.91 in    
Wind  
Wind Speed 9 mph (North)    
Max Wind Speed 21 mph    
Max Gust Speed 28 mph    
Visibility 10 miles    
Events      
Averages and records for this station are not official NWS values.
T = Trace of Precipitation, MM = Missing Value Source: NWS Daily Summary

Daily Weather History Graph

Daily Weather History Graph

Search for Another Location

Airport or City:

Trip Planner

Search our weather history database for the weather conditions in past years. The results will help you decide how hot, cold, wet, or windy it might be!

Date:

Astronomy

Apr. 10, 2014 Rise Set
Actual Time 7:00 AM CDT 8:07 PM CDT
Civil Twilight 6:31 AM CDT 8:36 PM CDT
Nautical Twilight 5:57 AM CDT 9:10 PM CDT
Astronomical Twilight 5:21 AM CDT 9:46 PM CDT
Moon 3:49 PM CDT (4/10) 4:27 AM CDT (4/10)
Length of Visible Light 14h 04m
Length of Day
13h 07m
Waxing Gibbous, 80% of the Moon is Illuminated
Apr 10
Waxing Gibbous
Apr 15
Full
Apr 22
Last Quarter
Apr 29
New
May 6
First Quarter

Hourly Weather History & Observations

Time (CDT) Temp. Windchill Dew Point Humidity Pressure Visibility Wind Dir Wind Speed Gust Speed Precip Events Conditions
12:15 AM 51.1 °F - 36.3 °F 57% 29.62 in 10.0 mi Calm Calm - N/A   Clear
12:35 AM 50.0 °F - 37.9 °F 63% 29.63 in 10.0 mi NNW 6.9 mph - N/A   Clear
12:55 AM 60.6 °F - 33.4 °F 36% 29.68 in 10.0 mi North 17.3 mph 24.2 mph N/A   Scattered Clouds
1:15 AM 61.5 °F - 33.4 °F 35% 29.72 in 10.0 mi North 19.6 mph 26.5 mph N/A   Scattered Clouds
1:35 AM 60.1 °F - 34.7 °F 39% 29.72 in 10.0 mi North 19.6 mph 25.3 mph N/A   Clear
1:55 AM 59.0 °F - 35.6 °F 42% 29.73 in 10.0 mi North 18.4 mph 23.0 mph N/A   Clear
2:15 AM 58.5 °F - 36.0 °F 43% 29.74 in 10.0 mi North 18.4 mph 24.2 mph N/A   Clear
2:35 AM 57.4 °F - 36.7 °F 46% 29.75 in 10.0 mi North 15.0 mph 24.2 mph N/A   Clear
2:55 AM 56.7 °F - 36.7 °F 47% 29.76 in 10.0 mi North 16.1 mph 23.0 mph N/A   Clear
3:15 AM 55.9 °F - 36.9 °F 49% 29.77 in 10.0 mi North 20.7 mph 26.5 mph N/A   Clear
3:35 AM 54.1 °F - 37.0 °F 52% 29.79 in 10.0 mi North 13.8 mph 20.7 mph N/A   Clear
3:55 AM 53.1 °F - 36.9 °F 54% 29.80 in 10.0 mi North 13.8 mph 20.7 mph N/A   Clear
4:15 AM 52.5 °F - 35.8 °F 53% 29.82 in 10.0 mi North 12.7 mph 19.6 mph N/A   Clear
4:35 AM 50.9 °F - 35.2 °F 55% 29.82 in 10.0 mi North 10.4 mph - N/A   Clear
4:55 AM 49.8 °F - 35.2 °F 57% 29.83 in 10.0 mi North 10.4 mph 16.1 mph N/A   Clear
5:15 AM 48.2 °F - 34.9 °F 60% 29.84 in 10.0 mi North 10.4 mph - N/A   Clear
5:35 AM 47.8 °F - 34.7 °F 60% 29.85 in 10.0 mi North 9.2 mph - N/A   Clear
5:55 AM 47.3 °F - 34.7 °F 62% 29.86 in 10.0 mi North 10.4 mph - N/A   Clear
6:15 AM 46.0 °F 41.9 °F 34.7 °F 65% 29.87 in 10.0 mi North 8.1 mph - N/A   Clear
6:35 AM 45.7 °F 41.5 °F 34.5 °F 65% 29.88 in 10.0 mi North 8.1 mph - N/A   Clear
6:55 AM 45.0 °F 41.2 °F 34.3 °F 66% 29.89 in 10.0 mi NNW 6.9 mph - N/A   Clear
7:15 AM 44.8 °F 40.4 °F 34.3 °F 67% 29.90 in 10.0 mi North 8.1 mph - N/A   Clear
7:35 AM 44.6 °F 40.2 °F 34.3 °F 67% 29.92 in 10.0 mi NNW 8.1 mph - N/A   Clear
7:55 AM 45.9 °F 41.7 °F 33.8 °F 63% 29.92 in 10.0 mi NNW 8.1 mph - N/A   Clear
8:15 AM 46.8 °F - 34.0 °F 61% 29.93 in 10.0 mi NNW 8.1 mph - N/A   Clear
8:35 AM 48.4 °F - 34.2 °F 58% 29.95 in 10.0 mi North 8.1 mph - N/A   Clear
8:55 AM 50.4 °F - 33.1 °F 52% 29.95 in 10.0 mi North 11.5 mph - N/A   Clear
9:15 AM 50.9 °F - 32.2 °F 49% 29.96 in 10.0 mi North 9.2 mph - N/A   Scattered Clouds
9:55 AM 51.8 °F - 29.7 °F 43% 29.97 in 10.0 mi North 11.5 mph - N/A   Clear
10:15 AM 52.2 °F - 28.2 °F 40% 29.98 in 10.0 mi North 8.1 mph - N/A   Clear
10:35 AM 52.7 °F - 27.5 °F 38% 29.99 in 10.0 mi North 10.4 mph - N/A   Clear
10:55 AM 53.8 °F - 26.1 °F 34% 29.99 in 10.0 mi North 6.9 mph - N/A   Clear
11:15 AM 54.3 °F - 24.8 °F 32% 30.00 in 10.0 mi NNE 4.6 mph 17.3 mph N/A   Scattered Clouds
11:35 AM 55.2 °F - 23.5 °F 29% 30.00 in 10.0 mi NNE 5.8 mph - N/A   Mostly Cloudy
11:55 AM 55.9 °F - 23.4 °F 28% 29.99 in 10.0 mi North 4.6 mph - N/A   Scattered Clouds
12:15 PM 57.4 °F - 21.6 °F 25% 29.99 in 10.0 mi NNE 9.2 mph - N/A   Clear
12:35 PM 59.0 °F - 22.6 °F 25% 29.99 in 10.0 mi North 12.7 mph 19.6 mph N/A   Clear
12:55 PM 60.1 °F - 24.3 °F 25% 29.99 in 10.0 mi NNE 9.2 mph - N/A   Clear
1:15 PM 61.5 °F - 23.7 °F 24% 29.99 in 10.0 mi North 9.2 mph 18.4 mph N/A   Clear
1:35 PM 62.1 °F - 23.2 °F 23% 29.98 in 10.0 mi NW 10.4 mph - N/A   Clear
1:55 PM 62.1 °F - 22.1 °F 22% 29.97 in 10.0 mi NW 8.1 mph - N/A   Clear
2:15 PM 63.0 °F - 20.5 °F 20% 29.97 in 10.0 mi North 6.9 mph 17.3 mph N/A   Clear
2:35 PM 63.5 °F - 19.6 °F 19% 29.97 in 10.0 mi North 8.1 mph 18.4 mph N/A   Clear
2:55 PM 63.9 °F - 20.7 °F 19% 29.96 in 10.0 mi NNE 10.4 mph 18.4 mph N/A   Clear
3:15 PM 64.4 °F - 20.1 °F 18% 29.96 in 10.0 mi NNW 6.9 mph - N/A   Clear
3:35 PM 64.2 °F - 19.8 °F 18% 29.96 in 10.0 mi NNW 13.8 mph 27.6 mph N/A   Clear
3:55 PM 64.4 °F - 20.1 °F 18% 29.96 in 10.0 mi North 11.5 mph - N/A   Clear
4:15 PM 64.2 °F - 19.8 °F 18% 29.96 in 10.0 mi WNW 10.4 mph - N/A   Clear
4:35 PM 64.2 °F - 19.0 °F 18% 29.95 in 10.0 mi NW 5.8 mph - N/A   Clear
4:55 PM 64.6 °F - 18.0 °F 17% 29.95 in 10.0 mi Calm Calm - N/A   Clear
5:15 PM 65.3 °F - 19.8 °F 18% 29.95 in 10.0 mi West 4.6 mph - N/A   Clear
5:35 PM 64.2 °F - 19.8 °F 18% 29.95 in 10.0 mi NE 3.5 mph - N/A   Clear
5:55 PM 64.0 °F - 19.4 °F 18% 29.95 in 10.0 mi NNW 5.8 mph - N/A   Clear
6:15 PM 63.5 °F - 18.7 °F 18% 29.95 in 10.0 mi Calm Calm - N/A   Clear
6:35 PM 64.4 °F - 19.0 °F 18% 29.95 in 10.0 mi NW 4.6 mph - N/A   Clear
6:55 PM 63.5 °F - 19.9 °F 19% 29.96 in 10.0 mi NNW 4.6 mph - N/A   Scattered Clouds
7:15 PM 62.4 °F - 21.6 °F 21% 29.96 in 10.0 mi Calm Calm - N/A   Mostly Cloudy
7:35 PM 60.8 °F - 25.0 °F 25% 29.96 in 10.0 mi Calm Calm - N/A   Scattered Clouds
7:55 PM 59.0 °F - 25.0 °F 27% 29.96 in 10.0 mi Calm Calm - N/A   Mostly Cloudy
8:15 PM 56.1 °F - 28.6 °F 35% 29.96 in 7.0 mi Calm Calm - N/A   Scattered Clouds
8:35 PM 54.7 °F - 24.6 °F 31% 29.96 in 10.0 mi Calm Calm - N/A   Scattered Clouds
8:55 PM 53.4 °F - 31.5 °F 43% 29.97 in 10.0 mi Calm Calm - N/A   Mostly Cloudy
9:15 PM 52.9 °F - 28.2 °F 39% 29.97 in 10.0 mi Calm Calm - N/A   Mostly Cloudy
9:35 PM 53.6 °F - 24.4 °F 32% 29.97 in 10.0 mi Calm Calm - N/A   Scattered Clouds
9:55 PM 50.2 °F - 28.8 °F 44% 29.99 in 10.0 mi Calm Calm - N/A   Clear
10:15 PM 47.1 °F - 29.7 °F 51% 29.99 in 10.0 mi Calm Calm - N/A   Clear
10:35 PM 49.8 °F - 27.5 °F 42% 29.99 in 10.0 mi Calm Calm - N/A   Scattered Clouds
10:55 PM 44.4 °F - 32.7 °F 64% 29.99 in 10.0 mi Calm Calm - N/A   Scattered Clouds
11:15 PM 45.5 °F - 31.8 °F 59% 29.99 in 10.0 mi Calm Calm - N/A   Clear
11:35 PM 47.5 °F - 27.9 °F 47% 29.99 in 10.0 mi Calm Calm - N/A   Clear
11:55 PM 45.1 °F - 34.0 °F 65% 30.01 in 10.0 mi Calm Calm - N/A   Mostly Cloudy